Time,TemperatureF,DewpointF,PressureIn,WindDirection,WindDirectionDegrees,WindSpeedMPH,WindSpeedGustMPH,Humidity,HourlyPrecipIn,Conditions,Clouds,dailyrainin,SoftwareType,DateUTC
2013-01-03 00:00:00,10.0,8.1,30.23,WSW,244,0.0,0.0,92,0.00,SCT,SCT,0.00,WeatherDisplay:10.37,2013-01-03 05:00:00,
2013-01-03 00:01:00,9.9,7.8,30.24,WSW,244,0.0,0.0,91,0.00,SCT,,0.00,WeatherDisplay:10.37,2013-01-03 05:01:00,
2013-01-03 00:03:00,9.9,7.8,30.24,WSW,244,0.0,0.0,91,0.00,BKN,,0.00,WeatherDisplay:10.37,2013-01-03 05:03:00,
2013-01-03 00:08:00,9.7,7.6,30.24,WSW,244,0.0,0.0,91,0.00,BKN,,0.00,WeatherDisplay:10.37,2013-01-03 05:08:00,
2013-01-03 00:13:00,9.6,7.5,30.23,WSW,244,0.0,0.0,91,0.00,BKN,,0.00,WeatherDisplay:10.37,2013-01-03 05:13:00,
2013-01-03 00:18:00,9.4,7.3,30.23,WSW,244,0.0,0.0,91,0.00,BKN,,0.00,WeatherDisplay:10.37,2013-01-03 05:18:00,
2013-01-03 00:23:00,9.3,7.2,30.23,WSW,244,0.0,0.0,91,0.00,BKN,,0.00,WeatherDisplay:10.37,2013-01-03 05:23:00,
2013-01-03 00:28:00,9.2,7.1,30.23,WSW,244,0.0,0.0,91,0.00,BKN,,0.00,WeatherDisplay:10.37,2013-01-03 05:28:00,
2013-01-03 00:33:00,9.1,7.0,30.23,WSW,244,0.0,0.0,91,0.00,BKN,,0.00,WeatherDisplay:10.37,2013-01-03 05:33:00,
2013-01-03 00:38:00,9.0,7.1,30.23,WSW,244,0.0,0.0,92,0.00,BKN,,0.00,WeatherDisplay:10.37,2013-01-03 05:38:00,
2013-01-03 00:43:00,8.9,7.1,30.23,WSW,244,0.0,0.0,92,0.00,BKN,,0.00,WeatherDisplay:10.37,2013-01-03 05:43:00,
2013-01-03 00:48:00,8.9,7.1,30.24,WSW,244,0.0,0.0,92,0.00,BKN,,0.00,WeatherDisplay:10.37,2013-01-03 05:48:00,
2013-01-03 00:53:00,8.7,6.6,30.23,WSW,244,0.0,0.0,91,0.00,BKN,,0.00,WeatherDisplay:10.37,2013-01-03 05:53:00,
2013-01-03 00:58:00,8.5,6.4,30.23,WSW,244,0.0,0.0,91,0.00,BKN,,0.00,WeatherDisplay:10.37,2013-01-03 05:58:00,
2013-01-03 01:03:00,8.5,6.7,30.23,WSW,244,0.0,0.0,92,0.00,BKN,,0.00,WeatherDisplay:10.37,2013-01-03 06:03:00,
2013-01-03 01:08:00,8.7,6.9,30.23,WSW,244,0.0,2.3,92,0.00,BKN,,0.00,WeatherDisplay:10.37,2013-01-03 06:08:00,
2013-01-03 01:13:00,8.8,7.0,30.23,WSW,240,0.0,1.1,92,0.00,BKN,,0.00,WeatherDisplay:10.37,2013-01-03 06:13:00,
2013-01-03 01:18:00,8.8,7.0,30.23,WSW,240,0.2,0.0,92,0.00,BKN,,0.00,WeatherDisplay:10.37,2013-01-03 06:18:00,
2013-01-03 01:23:00,8.9,7.1,30.23,WSW,240,0.1,2.0,92,0.00,BKN,,0.00,WeatherDisplay:10.37,2013-01-03 06:23:00,
2013-01-03 01:28:00,8.9,7.1,30.24,SW,232,0.1,0.0,92,0.00,BKN,,0.00,WeatherDisplay:10.37,2013-01-03 06:28:00,
2013-01-03 01:33:00,8.8,7.0,30.23,SSW,213,0.1,3.5,92,0.00,BKN,,0.00,WeatherDisplay:10.37,2013-01-03 06:33:00,
2013-01-03 01:38:00,8.7,6.9,30.23,SSW,213,0.0,0.0,92,0.00,BKN,,0.00,WeatherDisplay:10.37,2013-01-03 06:38:00,
2013-01-03 01:43:00,8.6,6.8,30.23,SSW,213,0.0,0.0,92,0.00,BKN,,0.00,WeatherDisplay:10.37,2013-01-03 06:43:00,
2013-01-03 01:48:00,8.5,6.4,30.23,SSW,213,0.0,2.3,91,0.00,BKN,,0.00,WeatherDisplay:10.37,2013-01-03 06:48:00,
2013-01-03 01:53:00,8.3,6.2,30.23,SSW,213,0.0,0.0,91,0.00,BKN,,0.00,WeatherDisplay:10.37,2013-01-03 06:53:00,
2013-01-03 01:58:00,8.1,6.0,30.23,SSW,213,0.0,1.1,91,0.00,BKN,,0.00,WeatherDisplay:10.37,2013-01-03 06:58:00,
2013-01-03 02:03:00,7.9,5.8,30.23,SSW,213,0.0,0.0,91,0.00,BKN,,0.00,WeatherDisplay:10.37,2013-01-03 07:03:00,
2013-01-03 02:08:00,7.7,5.6,30.24,SSW,213,0.0,0.0,91,0.00,BKN,,0.00,WeatherDisplay:10.37,2013-01-03 07:08:00,
2013-01-03 02:13:00,7.6,5.5,30.24,SSW,213,0.0,0.0,91,0.00,BKN,,0.00,WeatherDisplay:10.37,2013-01-03 07:13:00,
2013-01-03 02:18:00,7.4,5.3,30.24,SSW,213,0.0,0.0,91,0.00,BKN,,0.00,WeatherDisplay:10.37,2013-01-03 07:18:00,
2013-01-03 02:23:00,7.3,5.0,30.24,SSW,213,0.0,0.0,90,0.00,BKN,,0.00,WeatherDisplay:10.37,2013-01-03 07:23:00,
2013-01-03 02:28:00,7.2,5.1,30.24,SSW,213,0.0,0.0,91,0.00,BKN,,0.00,WeatherDisplay:10.37,2013-01-03 07:28:00,
2013-01-03 02:33:00,7.1,5.0,30.24,SSW,213,0.0,0.0,91,0.00,BKN,,0.00,WeatherDisplay:10.37,2013-01-03 07:33:00,
2013-01-03 02:38:00,7.2,5.1,30.24,SSW,213,0.0,0.0,91,0.00,BKN,,0.00,WeatherDisplay:10.37,2013-01-03 07:38:00,
2013-01-03 02:43:00,7.2,5.1,30.24,SSW,213,0.0,0.0,91,0.00,BKN,,0.00,WeatherDisplay:10.37,2013-01-03 07:43:00,
2013-01-03 02:48:00,7.3,5.2,30.24,SSW,213,0.0,0.0,91,0.00,BKN,,0.00,WeatherDisplay:10.37,2013-01-03 07:48:00,
2013-01-03 02:53:00,7.2,5.1,30.25,SSW,213,0.0,0.0,91,0.00,BKN,,0.00,WeatherDisplay:10.37,2013-01-03 07:53:00,
2013-01-03 02:58:00,7.2,5.1,30.24,SSW,213,0.0,0.0,91,0.00,BKN,,0.00,WeatherDisplay:10.37,2013-01-03 07:58:00,
2013-01-03 03:03:00,7.1,5.0,30.24,SSW,213,0.0,0.0,91,0.00,BKN,,0.00,WeatherDisplay:10.37,2013-01-03 08:03:00,
2013-01-03 03:08:00,7.0,4.9,30.24,SSW,213,0.0,0.0,91,0.00,BKN,,0.00,WeatherDisplay:10.37,2013-01-03 08:08:00,
2013-01-03 03:13:00,7.0,4.9,30.24,SSW,213,0.0,0.0,91,0.00,BKN,,0.00,WeatherDisplay:10.37,2013-01-03 08:13:00,
2013-01-03 03:18:00,6.9,4.8,30.24,SSW,213,0.0,0.0,91,0.00,BKN,,0.00,WeatherDisplay:10.37,2013-01-03 08:18:00,
2013-01-03 03:23:00,7.0,4.9,30.24,SSW,213,0.0,0.0,91,0.00,BKN,,0.00,WeatherDisplay:10.37,2013-01-03 08:23:00,
2013-01-03 03:28:00,7.0,4.9,30.24,SSW,213,0.0,0.0,91,0.00,BKN,,0.00,WeatherDisplay:10.37,2013-01-03 08:28:00,
2013-01-03 03:33:00,6.9,4.8,30.23,SSW,213,0.0,1.1,91,0.00,BKN,,0.00,WeatherDisplay:10.37,2013-01-03 08:33:00,
2013-01-03 03:38:00,6.8,4.7,30.23,SSW,213,0.0,0.0,91,0.00,BKN,,0.00,WeatherDisplay:10.37,2013-01-03 08:38:00,
2013-01-03 03:43:00,6.7,4.6,30.23,SSW,213,0.0,0.0,91,0.00,BKN,,0.00,WeatherDisplay:10.37,2013-01-03 08:43:00,
2013-01-03 03:48:00,6.6,4.5,30.23,SSW,213,0.0,0.0,91,0.00,BKN,,0.00,WeatherDisplay:10.37,2013-01-03 08:48:00,
2013-01-03 03:53:00,6.5,4.4,30.23,SSW,213,0.0,0.0,91,0.00,BKN,,0.00,WeatherDisplay:10.37,2013-01-03 08:53:00,
2013-01-03 03:58:00,6.5,4.4,30.23,SSW,213,0.0,0.0,91,0.00,BKN,,0.00,WeatherDisplay:10.37,2013-01-03 08:58:00,
2013-01-03 04:03:00,6.4,4.3,30.23,SSW,213,0.0,0.0,91,0.00,CLR,,0.00,WeatherDisplay:10.37,2013-01-03 09:03:00,
2013-01-03 04:08:00,6.3,4.2,30.23,SSW,213,0.0,0.0,91,0.00,CLR,,0.00,WeatherDisplay:10.37,2013-01-03 09:08:00,
2013-01-03 04:13:00,6.3,4.2,30.23,SSW,213,0.0,0.0,91,0.00,CLR,,0.00,WeatherDisplay:10.37,2013-01-03 09:13:00,
2013-01-03 04:18:00,6.2,4.1,30.23,SSW,213,0.0,0.0,91,0.00,CLR,,0.00,WeatherDisplay:10.37,2013-01-03 09:18:00,
2013-01-03 04:23:00,6.0,3.7,30.23,SSW,213,0.0,0.0,90,0.00,CLR,,0.00,WeatherDisplay:10.37,2013-01-03 09:23:00,
2013-01-03 04:28:00,5.8,3.5,30.24,SSW,213,0.0,0.0,90,0.00,CLR,,0.00,WeatherDisplay:10.37,2013-01-03 09:28:00,
2013-01-03 04:33:00,5.7,3.4,30.23,SSW,213,0.0,0.0,90,0.00,CLR,,0.00,WeatherDisplay:10.37,2013-01-03 09:33:00,
2013-01-03 04:38:00,5.7,3.6,30.23,SSW,213,0.0,0.0,91,0.00,CLR,,0.00,WeatherDisplay:10.37,2013-01-03 09:38:00,
2013-01-03 04:43:00,5.7,3.6,30.23,SSW,213,0.0,0.0,91,0.00,CLR,,0.00,WeatherDisplay:10.37,2013-01-03 09:43:00,
2013-01-03 04:48:00,5.8,3.7,30.23,SSW,213,0.0,0.0,91,0.00,CLR,,0.00,WeatherDisplay:10.37,2013-01-03 09:48:00,
2013-01-03 04:53:00,6.1,4.3,30.23,SSW,213,0.0,0.0,92,0.00,CLR,,0.00,WeatherDisplay:10.37,2013-01-03 09:53:00,
2013-01-03 04:58:00,6.4,4.6,30.23,SSW,213,0.0,0.0,92,0.00,CLR,,0.00,WeatherDisplay:10.37,2013-01-03 09:58:00,
2013-01-03 05:03:00,6.6,5.0,30.23,SSW,213,0.0,0.0,93,0.00,BKN,,0.00,WeatherDisplay:10.37,2013-01-03 10:03:00,
2013-01-03 05:08:00,6.8,5.0,30.23,SSW,213,0.0,0.0,92,0.00,BKN,,0.00,WeatherDisplay:10.37,2013-01-03 10:08:00,
2013-01-03 05:13:00,6.9,5.1,30.23,SSW,213,0.0,0.0,92,0.00,BKN,,0.00,WeatherDisplay:10.37,2013-01-03 10:13:00,
2013-01-03 05:18:00,6.9,5.1,30.23,SSW,213,0.0,0.0,92,0.00,BKN,,0.00,WeatherDisplay:10.37,2013-01-03 10:18:00,
2013-01-03 05:23:00,6.8,4.7,30.23,SSW,213,0.0,0.0,91,0.00,BKN,,0.00,WeatherDisplay:10.37,2013-01-03 10:23:00,
2013-01-03 05:28:00,6.7,4.6,30.23,SSW,213,0.0,0.0,91,0.00,BKN,,0.00,WeatherDisplay:10.37,2013-01-03 10:28:00,
2013-01-03 05:33:00,6.5,4.2,30.23,SSW,213,0.0,0.0,90,0.00,BKN,,0.00,WeatherDisplay:10.37,2013-01-03 10:33:00,
2013-01-03 05:38:00,6.3,4.0,30.23,SSW,213,0.0,0.0,90,0.00,BKN,,0.00,WeatherDisplay:10.37,2013-01-03 10:38:00,
2013-01-03 05:43:00,6.3,4.2,30.23,SSW,213,0.0,0.0,91,0.00,BKN,,0.00,WeatherDisplay:10.37,2013-01-03 10:43:00,
2013-01-03 05:48:00,6.3,4.2,30.23,SSW,213,0.0,0.0,91,0.00,BKN,,0.00,WeatherDisplay:10.37,2013-01-03 10:48:00,
2013-01-03 05:53:00,6.3,4.2,30.23,SSW,213,0.0,0.0,91,0.00,BKN,,0.00,WeatherDisplay:10.37,2013-01-03 10:53:00,
2013-01-03 05:58:00,6.5,4.7,30.23,SSW,213,0.0,0.0,92,0.00,BKN,,0.00,WeatherDisplay:10.37,2013-01-03 10:58:00,
2013-01-03 06:03:00,6.8,5.0,30.23,SSW,213,0.0,0.0,92,0.00,OVC,,0.00,WeatherDisplay:10.37,2013-01-03 11:03:00,
2013-01-03 06:08:00,7.1,5.5,30.23,SSW,213,0.0,0.0,93,0.00,OVC,,0.00,WeatherDisplay:10.37,2013-01-03 11:08:00,
2013-01-03 06:13:00,7.4,5.8,30.24,SSW,213,0.0,0.0,93,0.00,OVC,,0.00,WeatherDisplay:10.37,2013-01-03 11:13:00,
2013-01-03 06:18:00,7.6,6.0,30.24,SSW,213,0.0,0.0,93,0.00,OVC,,0.00,WeatherDisplay:10.37,2013-01-03 11:18:00,
2013-01-03 06:23:00,7.9,6.3,30.23,SSW,213,0.1,0.0,93,0.00,OVC,,0.00,WeatherDisplay:10.37,2013-01-03 11:23:00,
2013-01-03 06:28:00,8.1,6.5,30.23,SSW,213,0.0,0.0,93,0.00,OVC,,0.00,WeatherDisplay:10.37,2013-01-03 11:28:00,
2013-01-03 06:33:00,8.3,6.7,30.23,SSW,213,0.0,0.0,93,0.00,OVC,,0.00,WeatherDisplay:10.37,2013-01-03 11:33:00,
2013-01-03 06:38:00,8.4,6.8,30.23,SSW,213,0.0,0.0,93,0.00,OVC,,0.00,WeatherDisplay:10.37,2013-01-03 11:38:00,
2013-01-03 06:43:00,8.5,6.9,30.23,SSW,213,0.0,0.0,93,0.00,OVC,,0.00,WeatherDisplay:10.37,2013-01-03 11:43:00,
2013-01-03 06:48:00,8.7,7.1,30.23,SSW,213,0.0,0.0,93,0.00,OVC,,0.00,WeatherDisplay:10.37,2013-01-03 11:48:00,
2013-01-03 06:53:00,9.0,7.4,30.23,SSW,213,0.0,0.0,93,0.00,OVC,,0.00,WeatherDisplay:10.37,2013-01-03 11:53:00,
2013-01-03 06:58:00,9.2,7.6,30.23,SSW,213,0.2,1.1,93,0.00,OVC,,0.00,WeatherDisplay:10.37,2013-01-03 11:58:00,
2013-01-03 07:03:00,9.4,8.0,30.23,SSW,213,0.0,1.1,94,0.00,BKN,,0.00,WeatherDisplay:10.37,2013-01-03 12:03:00,
2013-01-03 07:08:00,9.7,8.3,30.22,South,188,0.2,1.1,94,0.00,BKN,,0.00,WeatherDisplay:10.37,2013-01-03 12:08:00,
2013-01-03 07:13:00,10.0,8.6,30.22,South,188,0.0,0.0,94,0.00,BKN,,0.00,WeatherDisplay:10.37,2013-01-03 12:13:00,
2013-01-03 07:18:00,10.2,8.8,30.23,South,188,0.0,0.0,94,0.00,BKN,,0.00,WeatherDisplay:10.37,2013-01-03 12:18:00,
2013-01-03 07:23:00,10.2,8.6,30.23,South,188,0.0,0.0,93,0.00,BKN,,0.00,WeatherDisplay:10.37,2013-01-03 12:23:00,
2013-01-03 07:28:00,10.1,8.2,30.24,South,188,0.0,0.0,92,0.00,BKN,,0.00,WeatherDisplay:10.37,2013-01-03 12:28:00,
2013-01-03 07:33:00,10.0,8.1,30.23,South,188,0.0,0.0,92,0.00,BKN,,0.00,WeatherDisplay:10.37,2013-01-03 12:33:00,
2013-01-03 07:38:00,10.1,8.2,30.23,South,188,0.1,1.1,92,0.00,BKN,,0.00,WeatherDisplay:10.37,2013-01-03 12:38:00,
2013-01-03 07:43:00,10.2,8.6,30.23,South,188,0.4,2.3,93,0.00,BKN,,0.00,WeatherDisplay:10.37,2013-01-03 12:43:00,
2013-01-03 07:48:00,10.3,8.7,30.23,South,188,0.0,0.0,93,0.00,BKN,,0.00,WeatherDisplay:10.37,2013-01-03 12:48:00,
2013-01-03 07:53:00,10.5,8.9,30.23,South,188,1.6,3.5,93,0.00,BKN,,0.00,WeatherDisplay:10.37,2013-01-03 12:53:00,
2013-01-03 07:58:00,10.7,9.1,30.23,South,190,0.8,3.5,93,0.00,BKN,,0.00,WeatherDisplay:10.37,2013-01-03 12:58:00,
2013-01-03 08:03:00,11.0,9.6,30.23,South,175,0.7,2.3,94,0.00,OVC,,0.00,WeatherDisplay:10.37,2013-01-03 13:03:00,
2013-01-03 08:08:00,11.6,10.4,30.23,South,178,1.3,3.5,95,0.00,OVC,,0.00,WeatherDisplay:10.37,2013-01-03 13:08:00,
2013-01-03 08:13:00,12.4,11.2,30.23,South,178,0.8,2.3,95,0.00,OVC,,0.00,WeatherDisplay:10.37,2013-01-03 13:13:00,
2013-01-03 08:18:00,13.0,11.8,30.23,South,180,1.9,3.5,95,0.00,OVC,,0.00,WeatherDisplay:10.37,2013-01-03 13:18:00,
2013-01-03 08:23:00,13.7,12.5,30.23,SSW,192,3.4,6.9,95,0.00,OVC,,0.00,WeatherDisplay:10.37,2013-01-03 13:23:00,
2013-01-03 08:28:00,14.2,13.0,30.22,South,174,2.6,5.0,95,0.00,OVC,,0.00,WeatherDisplay:10.37,2013-01-03 13:28:00,
2013-01-03 08:33:00,14.6,13.2,30.22,South,178,3.2,5.0,94,0.00,OVC,,0.00,WeatherDisplay:10.37,2013-01-03 13:33:00,
2013-01-03 08:38:00,14.9,13.2,30.22,South,184,1.1,2.3,93,0.00,OVC,,0.00,WeatherDisplay:10.37,2013-01-03 13:38:00,
2013-01-03 08:43:00,15.1,13.2,30.21,SSW,194,4.7,6.9,92,0.00,OVC,,0.00,WeatherDisplay:10.37,2013-01-03 13:43:00,
2013-01-03 08:48:00,15.4,13.5,30.21,South,176,2.9,6.9,92,0.00,OVC,,0.00,WeatherDisplay:10.37,2013-01-03 13:48:00,
2013-01-03 08:53:00,15.7,13.5,30.21,South,177,6.6,10.4,91,0.00,OVC,,0.00,WeatherDisplay:10.37,2013-01-03 13:53:00,
2013-01-03 08:58:00,16.0,13.6,30.21,SSW,200,2.9,4.6,90,0.00,OVC,,0.00,WeatherDisplay:10.37,2013-01-03 13:58:00,
2013-01-03 09:03:00,16.3,13.6,30.22,South,174,4.1,6.0,89,0.00,SCT,,0.00,WeatherDisplay:10.37,2013-01-03 14:03:00,
2013-01-03 09:08:00,16.7,13.8,30.22,South,182,1.8,3.5,88,0.00,SCT,,0.00,WeatherDisplay:10.37,2013-01-03 14:08:00,
2013-01-03 09:13:00,16.9,13.7,30.22,WSW,246,5.0,8.1,87,0.00,SCT,,0.00,WeatherDisplay:10.37,2013-01-03 14:13:00,
2013-01-03 09:18:00,17.0,13.8,30.22,SW,214,3.2,3.5,87,0.00,SCT,,0.00,WeatherDisplay:10.37,2013-01-03 14:18:00,
2013-01-03 09:23:00,17.1,13.6,30.22,SSW,211,2.3,3.5,86,0.00,SCT,,0.00,WeatherDisplay:10.37,2013-01-03 14:23:00,
2013-01-03 09:28:00,17.2,13.7,30.22,South,185,2.7,4.6,86,0.00,SCT,,0.00,WeatherDisplay:10.37,2013-01-03 14:28:00,
2013-01-03 09:33:00,17.5,13.8,30.22,South,183,5.3,8.1,85,0.00,SCT,,0.00,WeatherDisplay:10.37,2013-01-03 14:33:00,
2013-01-03 09:38:00,17.8,13.8,30.22,South,191,5.2,8.1,84,0.00,SCT,,0.00,WeatherDisplay:10.37,2013-01-03 14:38:00,
2013-01-03 09:43:00,18.0,14.0,30.21,SSW,211,1.9,4.6,84,0.00,SCT,,0.00,WeatherDisplay:10.37,2013-01-03 14:43:00,
2013-01-03 09:48:00,18.2,13.9,30.22,SW,216,4.1,7.0,83,0.00,SCT,,0.00,WeatherDisplay:10.37,2013-01-03 14:48:00,
2013-01-03 09:53:00,18.5,13.9,30.21,SSW,207,3.3,5.8,82,0.00,SCT,,0.00,WeatherDisplay:10.37,2013-01-03 14:53:00,
2013-01-03 09:58:00,19.0,14.4,30.21,SSE,165,4.8,7.0,82,0.00,SCT,,0.00,WeatherDisplay:10.37,2013-01-03 14:58:00,
2013-01-03 10:03:00,19.4,14.5,30.21,South,188,1.9,4.6,81,0.00,SCT,,0.00,WeatherDisplay:10.37,2013-01-03 15:03:00,
2013-01-03 10:08:00,19.8,14.3,30.21,South,188,4.3,8.1,79,0.00,SCT,,0.00,WeatherDisplay:10.37,2013-01-03 15:08:00,
2013-01-03 10:13:00,20.0,14.2,30.21,SW,220,5.9,9.2,78,0.00,SCT,,0.00,WeatherDisplay:10.37,2013-01-03 15:13:00,
2013-01-03 10:18:00,20.4,14.6,30.21,SW,216,5.9,8.1,78,0.00,SCT,,0.00,WeatherDisplay:10.37,2013-01-03 15:18:00,
2013-01-03 10:23:00,20.6,14.5,30.20,SW,217,4.6,8.1,77,0.00,SCT,,0.00,WeatherDisplay:10.37,2013-01-03 15:23:00,
2013-01-03 10:28:00,21.0,14.6,30.21,SSW,213,4.4,6.9,76,0.00,SCT,,0.00,WeatherDisplay:10.37,2013-01-03 15:28:00,
2013-01-03 10:33:00,21.5,14.5,30.21,SSW,209,3.3,4.6,74,0.00,SCT,,0.00,WeatherDisplay:10.37,2013-01-03 15:33:00,
2013-01-03 10:38:00,21.7,14.7,30.22,SW,229,1.6,3.5,74,0.00,SCT,,0.00,WeatherDisplay:10.37,2013-01-03 15:38:00,
2013-01-03 10:43:00,22.1,15.1,30.21,SSW,201,4.0,5.8,74,0.00,SCT,,0.00,WeatherDisplay:10.37,2013-01-03 15:43:00,
2013-01-03 10:48:00,22.5,15.1,30.20,SW,221,3.3,4.6,73,0.00,SCT,,0.00,WeatherDisplay:10.37,2013-01-03 15:48:00,
2013-01-03 10:53:00,22.7,15.3,30.20,SSW,207,3.9,5.8,73,0.00,SCT,,0.00,WeatherDisplay:10.37,2013-01-03 15:53:00,
2013-01-03 10:58:00,23.1,15.7,30.20,SW,217,5.0,6.9,73,0.00,SCT,,0.00,WeatherDisplay:10.37,2013-01-03 15:58:00,
2013-01-03 11:03:00,23.4,16.0,30.19,SW,222,4.4,5.8,73,0.00,BKN,,0.00,WeatherDisplay:10.37,2013-01-03 16:03:00,
2013-01-03 11:08:00,23.6,16.2,30.19,SW,222,4.3,5.8,73,0.00,BKN,,0.00,WeatherDisplay:10.37,2013-01-03 16:08:00,
2013-01-03 11:13:00,23.9,16.8,30.19,SSW,199,5.4,8.1,74,0.00,BKN,,0.00,WeatherDisplay:10.37,2013-01-03 16:13:00,
2013-01-03 11:18:00,24.3,17.2,30.19,SW,223,5.2,8.1,74,0.00,BKN,,0.00,WeatherDisplay:10.37,2013-01-03 16:18:00,
2013-01-03 11:23:00,24.5,17.4,30.19,SW,217,5.7,10.4,74,0.00,BKN,,0.00,WeatherDisplay:10.37,2013-01-03 16:23:00,
2013-01-03 11:28:00,24.8,17.7,30.18,SW,236,3.5,5.8,74,0.00,BKN,,0.00,WeatherDisplay:10.37,2013-01-03 16:28:00,
2013-01-03 11:33:00,25.1,17.7,30.18,SSW,194,4.0,6.0,73,0.00,BKN,,0.00,WeatherDisplay:10.37,2013-01-03 16:33:00,
2013-01-03 11:38:00,25.3,17.9,30.18,SW,219,4.2,5.8,73,0.00,BKN,,0.00,WeatherDisplay:10.37,2013-01-03 16:38:00,
2013-01-03 11:43:00,25.6,17.8,30.18,SW,232,6.8,11.5,72,0.00,BKN,,0.00,WeatherDisplay:10.37,2013-01-03 16:43:00,
2013-01-03 11:48:00,25.6,17.8,30.17,WSW,241,8.7,15.0,72,0.00,BKN,,0.00,WeatherDisplay:10.37,2013-01-03 16:48:00,
2013-01-03 11:53:00,25.6,17.8,30.17,West,268,6.3,8.1,72,0.00,BKN,,0.00,WeatherDisplay:10.37,2013-01-03 16:53:00,
2013-01-03 11:58:00,25.7,17.9,30.17,WSW,240,5.3,6.9,72,0.00,BKN,,0.00,WeatherDisplay:10.37,2013-01-03 16:58:00,
2013-01-03 12:03:00,26.0,18.2,30.17,SW,221,7.3,10.4,72,0.00,BKN,,0.00,WeatherDisplay:10.37,2013-01-03 17:03:00,
2013-01-03 12:08:00,26.0,17.9,30.17,SSW,209,7.5,11.5,71,0.00,BKN,,0.00,WeatherDisplay:10.37,2013-01-03 17:08:00,
2013-01-03 12:13:00,26.0,18.2,30.16,SW,217,5.6,10.4,72,0.00,BKN,,0.00,WeatherDisplay:10.37,2013-01-03 17:13:00,
2013-01-03 12:18:00,26.2,18.4,30.16,SSW,213,4.6,5.8,72,0.00,BKN,,0.00,WeatherDisplay:10.37,2013-01-03 17:18:00,
2013-01-03 12:23:00,26.5,18.7,30.16,WSW,238,5.5,8.1,72,0.00,BKN,,0.00,WeatherDisplay:10.37,2013-01-03 17:23:00,
2013-01-03 12:28:00,26.7,18.6,30.16,WSW,252,7.0,12.7,71,0.00,BKN,,0.00,WeatherDisplay:10.37,2013-01-03 17:28:00,
2013-01-03 12:33:00,26.9,18.4,30.15,WSW,242,6.7,11.5,70,0.00,BKN,,0.00,WeatherDisplay:10.37,2013-01-03 17:33:00,
2013-01-03 12:38:00,27.1,18.6,30.15,West,264,4.2,10.4,70,0.00,BKN,,0.00,WeatherDisplay:10.37,2013-01-03 17:38:00,
2013-01-03 12:43:00,27.3,18.8,30.15,WSW,242,4.0,6.9,70,0.00,BKN,,0.00,WeatherDisplay:10.37,2013-01-03 17:43:00,
2013-01-03 12:48:00,27.5,18.7,30.15,WSW,245,3.9,6.9,69,0.00,BKN,,0.00,WeatherDisplay:10.37,2013-01-03 17:48:00,
2013-01-03 12:53:00,27.6,19.4,30.14,SW,221,4.5,8.1,71,0.00,BKN,,0.00,WeatherDisplay:10.37,2013-01-03 17:53:00,
2013-01-03 12:58:00,27.8,18.9,30.14,WSW,243,6.2,11.5,69,0.00,BKN,,0.00,WeatherDisplay:10.37,2013-01-03 17:58:00,
2013-01-03 13:03:00,27.9,19.0,30.14,WSW,251,6.5,10.4,69,0.00,BKN,,0.00,WeatherDisplay:10.37,2013-01-03 18:03:00,
2013-01-03 13:08:00,28.0,19.1,30.14,WSW,252,7.0,10.4,69,0.00,BKN,,0.00,WeatherDisplay:10.37,2013-01-03 18:08:00,
2013-01-03 13:13:00,28.2,19.3,30.14,West,271,7.3,13.8,69,0.00,BKN,,0.00,WeatherDisplay:10.37,2013-01-03 18:13:00,
2013-01-03 13:18:00,28.3,19.4,30.14,SW,234,4.9,10.4,69,0.00,BKN,,0.00,WeatherDisplay:10.37,2013-01-03 18:18:00,
2013-01-03 13:23:00,28.4,19.2,30.14,WSW,241,6.1,8.1,68,0.00,BKN,,0.00,WeatherDisplay:10.37,2013-01-03 18:23:00,
2013-01-03 13:28:00,28.5,19.3,30.14,WSW,238,8.8,12.7,68,0.00,BKN,,0.00,WeatherDisplay:10.37,2013-01-03 18:28:00,
2013-01-03 13:33:00,28.6,19.7,30.13,WSW,252,4.4,5.8,69,0.00,BKN,,0.00,WeatherDisplay:10.37,2013-01-03 18:33:00,
2013-01-03 13:38:00,28.8,19.6,30.13,SSW,196,7.2,10.4,68,0.00,BKN,,0.00,WeatherDisplay:10.37,2013-01-03 18:38:00,
2013-01-03 13:43:00,28.9,20.0,30.14,WSW,246,4.1,5.8,69,0.00,BKN,,0.00,WeatherDisplay:10.37,2013-01-03 18:43:00,
2013-01-03 13:48:00,29.0,20.1,30.13,WSW,253,10.4,18.4,69,0.00,BKN,,0.00,WeatherDisplay:10.37,2013-01-03 18:48:00,
2013-01-03 13:53:00,29.1,19.8,30.14,SSW,198,6.1,12.7,68,0.00,BKN,,0.00,WeatherDisplay:10.37,2013-01-03 18:53:00,
2013-01-03 13:58:00,29.2,20.3,30.13,WSW,252,9.8,17.3,69,0.00,BKN,,0.00,WeatherDisplay:10.37,2013-01-03 18:58:00,
2013-01-03 14:03:00,29.2,19.9,30.13,WSW,248,8.6,13.8,68,0.00,OVC,,0.00,WeatherDisplay:10.37,2013-01-03 19:03:00,
2013-01-03 14:08:00,29.2,20.3,30.13,SW,234,5.1,16.1,69,0.00,OVC,,0.00,WeatherDisplay:10.37,2013-01-03 19:08:00,
2013-01-03 14:13:00,29.2,19.9,30.13,SW,230,9.4,13.8,68,0.00,OVC,,0.00,WeatherDisplay:10.37,2013-01-03 19:13:00,
2013-01-03 14:18:00,29.2,20.3,30.13,SSW,202,5.8,11.5,69,0.00,OVC,,0.00,WeatherDisplay:10.37,2013-01-03 19:18:00,
2013-01-03 14:55:00,30.0,21.4,30.13,WSW,246,5.2,11.5,70,0.00,OVC,,0.00,WeatherDisplay:10.37,2013-01-03 19:55:00,
2013-01-03 15:00:00,30.0,21.4,30.13,WSW,256,5.2,8.1,70,0.00,OVC,,0.00,WeatherDisplay:10.37,2013-01-03 20:00:00,
2013-01-03 15:05:00,30.1,21.5,30.13,WSW,246,4.2,6.9,70,0.00,OVC,,0.00,WeatherDisplay:10.37,2013-01-03 20:05:00,
2013-01-03 15:10:00,30.1,21.5,30.13,West,266,6.6,11.5,70,0.00,OVC,,0.00,WeatherDisplay:10.37,2013-01-03 20:10:00,
2013-01-03 15:15:00,30.2,21.9,30.13,WSW,241,7.1,11.5,71,0.00,OVC,,0.00,WeatherDisplay:10.37,2013-01-03 20:15:00,
2013-01-03 15:20:00,30.3,21.7,30.13,West,263,7.3,12.7,70,0.00,OVC,,0.00,WeatherDisplay:10.37,2013-01-03 20:20:00,
2013-01-03 15:25:00,30.4,22.1,30.13,WNW,292,8.8,13.0,71,0.00,OVC,,0.00,WeatherDisplay:10.37,2013-01-03 20:25:00,
2013-01-03 15:30:00,30.4,22.1,30.13,WSW,254,7.7,11.5,71,0.00,OVC,,0.00,WeatherDisplay:10.37,2013-01-03 20:30:00,
2013-01-03 15:35:00,30.5,22.5,30.13,NW,307,7.1,11.5,72,0.00,OVC,,0.00,WeatherDisplay:10.37,2013-01-03 20:35:00,
2013-01-03 15:40:00,30.5,22.5,30.14,WSW,251,4.8,8.1,72,0.00,OVC,,0.00,WeatherDisplay:10.37,2013-01-03 20:40:00,
2013-01-03 15:45:00,30.5,22.5,30.14,West,262,3.4,9.2,72,0.00,OVC,,0.00,WeatherDisplay:10.37,2013-01-03 20:45:00,
2013-01-03 15:50:00,30.5,22.5,30.14,West,262,7.6,11.5,72,0.00,OVC,,0.00,WeatherDisplay:10.37,2013-01-03 20:50:00,
2013-01-03 15:55:00,30.5,22.9,30.14,WNW,296,7.4,11.5,73,0.00,OVC,,0.00,WeatherDisplay:10.37,2013-01-03 20:55:00,
2013-01-03 16:00:00,30.5,22.9,30.14,West,265,6.1,9.2,73,0.00,OVC,,0.00,WeatherDisplay:10.37,2013-01-03 21:00:00,
2013-01-03 16:05:00,30.5,23.2,30.14,West,259,5.9,13.8,74,0.00,OVC,,0.00,WeatherDisplay:10.37,2013-01-03 21:05:00,
2013-01-03 16:10:00,30.6,23.9,30.14,West,266,8.3,12.7,76,0.00,OVC,,0.00,WeatherDisplay:10.37,2013-01-03 21:10:00,
2013-01-03 16:15:00,30.5,23.8,30.15,West,264,13.0,20.7,76,0.00,OVC,,0.00,WeatherDisplay:10.37,2013-01-03 21:15:00,
2013-01-03 16:20:00,30.4,24.1,30.14,SW,225,14.1,23.0,77,0.00,OVC,,0.00,WeatherDisplay:10.37,2013-01-03 21:20:00,
2013-01-03 16:25:00,30.3,24.0,30.14,SW,228,11.4,23.0,77,0.00,OVC,,0.00,WeatherDisplay:10.37,2013-01-03 21:25:00,
2013-01-03 16:30:00,30.2,24.2,30.15,West,261,5.8,12.7,78,0.00,OVC,,0.00,WeatherDisplay:10.37,2013-01-03 21:30:00,
2013-01-03 16:35:00,30.1,24.4,30.15,NW,306,6.9,15.0,79,0.00,OVC,,0.00,WeatherDisplay:10.37,2013-01-03 21:35:00,
2013-01-03 16:40:00,30.0,24.3,30.15,West,276,5.1,8.1,79,0.00,OVC,,0.00,WeatherDisplay:10.37,2013-01-03 21:40:00,
2013-01-03 16:45:00,29.8,24.1,30.16,WSW,238,3.5,5.8,79,0.00,OVC,,0.00,WeatherDisplay:10.37,2013-01-03 21:45:00,
2013-01-03 16:50:00,29.7,24.0,30.16,SSW,213,6.1,7.0,79,0.00,OVC,,0.00,WeatherDisplay:10.37,2013-01-03 21:50:00,
2013-01-03 16:55:00,29.6,23.9,30.16,WNW,294,11.9,12.7,79,0.00,OVC,,0.00,WeatherDisplay:10.37,2013-01-03 21:55:00,
2013-01-03 17:00:00,29.5,24.1,30.16,WNW,283,6.5,12.7,80,0.00,OVC,,0.00,WeatherDisplay:10.37,2013-01-03 22:00:00,
2013-01-03 17:05:00,29.3,24.2,30.16,WSW,248,9.6,13.8,81,0.00,OVC,,0.00,WeatherDisplay:10.37,2013-01-03 22:05:00,
2013-01-03 17:10:00,29.3,24.2,30.17,WSW,248,6.5,11.0,81,0.00,OVC,,0.00,WeatherDisplay:10.37,2013-01-03 22:10:00,
2013-01-03 17:15:00,29.3,24.2,30.17,WNW,289,4.2,6.9,81,0.00,OVC,,0.00,WeatherDisplay:10.37,2013-01-03 22:15:00,
2013-01-03 17:20:00,29.3,24.2,30.17,WSW,245,6.1,10.4,81,0.00,OVC,,0.00,WeatherDisplay:10.37,2013-01-03 22:20:00,
2013-01-03 17:25:00,29.3,24.2,30.17,West,272,6.7,11.5,81,0.00,OVC,,0.00,WeatherDisplay:10.37,2013-01-03 22:25:00,
2013-01-03 17:30:00,29.2,24.1,30.17,West,276,4.6,13.0,81,0.00,OVC,,0.00,WeatherDisplay:10.37,2013-01-03 22:30:00,
2013-01-03 17:35:00,29.3,24.2,30.17,West,260,6.8,12.0,81,0.00,OVC,,0.00,WeatherDisplay:10.37,2013-01-03 22:35:00,
2013-01-03 17:40:00,29.2,24.1,30.17,West,273,5.4,6.9,81,0.00,OVC,,0.00,WeatherDisplay:10.37,2013-01-03 22:40:00,
2013-01-03 17:45:00,29.2,24.4,30.17,West,271,6.0,9.2,82,0.00,OVC,,0.00,WeatherDisplay:10.37,2013-01-03 22:45:00,
2013-01-03 17:50:00,29.2,24.4,30.17,West,279,7.3,11.5,82,0.00,OVC,,0.00,WeatherDisplay:10.37,2013-01-03 22:50:00,
2013-01-03 17:55:00,29.1,24.3,30.17,West,263,7.0,11.5,82,0.00,OVC,,0.00,WeatherDisplay:10.37,2013-01-03 22:55:00,
2013-01-03 18:00:00,29.0,24.2,30.18,WSW,251,6.0,10.0,82,0.00,OVC,,0.00,WeatherDisplay:10.37,2013-01-03 23:00:00,
2013-01-03 18:05:00,29.0,24.2,30.18,West,267,5.2,11.5,82,0.00,-SN,,0.00,WeatherDisplay:10.37,2013-01-03 23:05:00,
2013-01-03 18:10:00,29.0,24.2,30.18,SSW,207,8.2,13.8,82,0.00,-SN,,0.00,WeatherDisplay:10.37,2013-01-03 23:10:00,
2013-01-03 18:15:00,29.0,24.2,30.18,WSW,257,8.4,16.1,82,0.00,-SN,,0.00,WeatherDisplay:10.37,2013-01-03 23:15:00,
2013-01-03 18:20:00,28.9,24.4,30.18,WSW,253,3.4,3.5,83,0.00,-SN,,0.00,WeatherDisplay:10.37,2013-01-03 23:20:00,
2013-01-03 18:25:00,28.9,24.4,30.18,West,263,3.1,3.5,83,0.00,-SN,,0.00,WeatherDisplay:10.37,2013-01-03 23:25:00,
2013-01-03 18:30:00,28.8,24.3,30.18,WSW,250,5.9,11.5,83,0.00,-SN,,0.00,WeatherDisplay:10.37,2013-01-03 23:30:00,
2013-01-03 18:35:00,28.8,24.3,30.18,WNW,294,8.5,11.5,83,0.00,-SN,,0.00,WeatherDisplay:10.37,2013-01-03 23:35:00,
2013-01-03 18:40:00,28.8,24.3,30.18,SW,232,7.0,11.5,83,0.00,-SN,,0.00,WeatherDisplay:10.37,2013-01-03 23:40:00,
2013-01-03 18:45:00,28.8,24.3,30.19,WSW,244,5.1,11.5,83,0.00,-SN,,0.00,WeatherDisplay:10.37,2013-01-03 23:45:00,
2013-01-03 18:50:00,28.8,24.3,30.19,WSW,252,5.5,9.2,83,0.00,-SN,,0.00,WeatherDisplay:10.37,2013-01-03 23:50:00,
2013-01-03 18:55:00,28.8,24.3,30.19,SW,230,6.0,6.9,83,0.00,-SN,,0.00,WeatherDisplay:10.37,2013-01-03 23:55:00,
2013-01-03 19:00:00,28.8,24.3,30.19,WSW,254,4.7,12.7,83,0.00,-SN,,0.00,WeatherDisplay:10.37,2013-01-04 00:00:00,
2013-01-03 19:05:00,28.8,24.3,30.19,WSW,246,4.7,6.9,83,0.00,-SN,,0.00,WeatherDisplay:10.37,2013-01-04 00:05:00,
2013-01-03 19:10:00,28.8,24.3,30.19,WSW,253,5.7,11.5,83,0.00,-SN,,0.00,WeatherDisplay:10.37,2013-01-04 00:10:00,
2013-01-03 19:15:00,28.8,24.3,30.19,WSW,252,5.5,11.0,83,0.00,-SN,,0.00,WeatherDisplay:10.37,2013-01-04 00:15:00,
2013-01-03 19:20:00,28.8,24.6,30.19,WSW,256,3.6,5.8,84,0.00,-SN,,0.00,WeatherDisplay:10.37,2013-01-04 00:20:00,
2013-01-03 19:25:00,28.7,24.5,30.19,WSW,256,5.8,8.0,84,0.00,-SN,,0.00,WeatherDisplay:10.37,2013-01-04 00:25:00,
2013-01-03 19:30:00,28.7,24.5,30.19,West,259,6.7,10.4,84,0.00,-SN,,0.00,WeatherDisplay:10.37,2013-01-04 00:30:00,
2013-01-03 19:35:00,28.7,24.5,30.19,WSW,257,7.1,11.5,84,0.00,-SN,,0.00,WeatherDisplay:10.37,2013-01-04 00:35:00,
2013-01-03 19:40:00,28.7,24.5,30.20,West,259,8.1,11.5,84,0.00,-SN,,0.00,WeatherDisplay:10.37,2013-01-04 00:40:00,
2013-01-03 19:45:00,28.7,24.5,30.20,West,280,7.0,12.7,84,0.00,-SN,,0.00,WeatherDisplay:10.37,2013-01-04 00:45:00,
2013-01-03 19:50:00,28.7,24.2,30.20,West,270,6.6,10.0,83,0.00,-SN,,0.00,WeatherDisplay:10.37,2013-01-04 00:50:00,
2013-01-03 19:55:00,28.7,24.2,30.20,West,263,5.4,10.4,83,0.00,-SN,,0.00,WeatherDisplay:10.37,2013-01-04 00:55:00,
2013-01-03 20:00:00,28.7,24.2,30.20,West,263,4.5,8.1,83,0.00,-SN,,0.00,WeatherDisplay:10.37,2013-01-04 01:00:00,
2013-01-03 20:05:00,28.7,24.2,30.20,WNW,285,4.2,6.9,83,0.00,-SN,,0.00,WeatherDisplay:10.37,2013-01-04 01:05:00,
2013-01-03 20:10:00,28.7,24.2,30.20,WSW,244,4.0,8.1,83,0.00,-SN,,0.00,WeatherDisplay:10.37,2013-01-04 01:10:00,
2013-01-03 20:15:00,28.7,24.2,30.20,WNW,288,9.4,13.8,83,0.00,-SN,,0.00,WeatherDisplay:10.37,2013-01-04 01:15:00,
2013-01-03 20:20:00,28.7,24.2,30.20,WSW,258,4.5,6.9,83,0.00,-SN,,0.00,WeatherDisplay:10.37,2013-01-04 01:20:00,
2013-01-03 20:25:00,28.7,24.2,30.20,West,260,5.1,8.0,83,0.00,-SN,,0.00,WeatherDisplay:10.37,2013-01-04 01:25:00,
2013-01-03 20:30:00,28.6,24.1,30.20,West,273,5.5,11.5,83,0.00,-SN,,0.00,WeatherDisplay:10.37,2013-01-04 01:30:00,
2013-01-03 20:35:00,28.6,24.1,30.20,WSW,245,11.1,12.7,83,0.00,-SN,,0.00,WeatherDisplay:10.37,2013-01-04 01:35:00,
2013-01-03 20:40:00,28.6,24.1,30.20,West,281,4.2,10.4,83,0.00,-SN,,0.00,WeatherDisplay:10.37,2013-01-04 01:40:00,
2013-01-03 20:45:00,28.6,24.1,30.20,West,261,3.5,5.8,83,0.00,-SN,,0.00,WeatherDisplay:10.37,2013-01-04 01:45:00,
2013-01-03 20:50:00,28.6,24.1,30.20,WSW,258,3.9,6.9,83,0.00,-SN,,0.00,WeatherDisplay:10.37,2013-01-04 01:50:00,
2013-01-03 20:55:00,28.5,24.0,30.20,WSW,256,6.1,11.5,83,0.00,-SN,,0.00,WeatherDisplay:10.37,2013-01-04 01:55:00,
2013-01-03 21:00:00,28.5,24.0,30.20,WSW,255,4.5,6.9,83,0.00,-SN,,0.00,WeatherDisplay:10.37,2013-01-04 02:00:00,
2013-01-03 21:05:00,28.5,24.0,30.20,West,271,4.7,8.1,83,0.00,-SN,,0.00,WeatherDisplay:10.37,2013-01-04 02:05:00,
2013-01-03 21:10:00,28.5,24.0,30.20,West,267,4.8,11.5,83,0.00,-SN,,0.00,WeatherDisplay:10.37,2013-01-04 02:10:00,
2013-01-03 21:15:00,28.5,24.0,30.20,West,274,4.0,8.1,83,0.00,-SN,,0.00,WeatherDisplay:10.37,2013-01-04 02:15:00,
2013-01-03 21:20:00,28.5,24.0,30.20,WNW,282,6.1,9.2,83,0.00,-SN,,0.00,WeatherDisplay:10.37,2013-01-04 02:20:00,
2013-01-03 21:25:00,28.5,24.0,30.20,West,261,4.6,8.1,83,0.00,-SN,,0.00,WeatherDisplay:10.37,2013-01-04 02:25:00,
2013-01-03 21:30:00,28.5,24.0,30.20,West,278,5.7,8.1,83,0.00,-SN,,0.00,WeatherDisplay:10.37,2013-01-04 02:30:00,
2013-01-03 21:35:00,28.4,23.9,30.20,West,263,6.7,11.5,83,0.00,-SN,,0.00,WeatherDisplay:10.37,2013-01-04 02:35:00,
2013-01-03 21:40:00,28.4,23.9,30.20,West,261,3.7,6.9,83,0.00,-SN,,0.00,WeatherDisplay:10.37,2013-01-04 02:40:00,
2013-01-03 21:45:00,28.4,23.9,30.20,West,260,4.8,10.4,83,0.00,-SN,,0.00,WeatherDisplay:10.37,2013-01-04 02:45:00,
2013-01-03 21:50:00,28.4,23.9,30.20,WSW,238,4.4,9.2,83,0.00,-SN,,0.00,WeatherDisplay:10.37,2013-01-04 02:50:00,
2013-01-03 21:55:00,28.3,23.8,30.20,West,259,8.7,15.0,83,0.00,-SN,,0.00,WeatherDisplay:10.37,2013-01-04 02:55:00,
2013-01-03 22:00:00,28.3,23.8,30.20,West,261,5.8,10.4,83,0.00,-SN,,0.00,WeatherDisplay:10.37,2013-01-04 03:00:00,
2013-01-03 22:05:00,28.3,23.8,30.20,WSW,255,6.0,11.5,83,0.00,-SN,,0.00,WeatherDisplay:10.37,2013-01-04 03:05:00,
2013-01-03 22:10:00,28.3,23.8,30.21,West,259,6.7,12.7,83,0.00,-SN,,0.00,WeatherDisplay:10.37,2013-01-04 03:10:00,
2013-01-03 22:15:00,28.3,24.1,30.21,WSW,238,4.4,6.9,84,0.00,-SN,,0.00,WeatherDisplay:10.37,2013-01-04 03:15:00,
2013-01-03 22:20:00,28.3,24.1,30.21,WNW,285,5.9,9.2,84,0.00,-SN,,0.00,WeatherDisplay:10.37,2013-01-04 03:20:00,
2013-01-03 22:25:00,28.2,24.0,30.21,West,279,4.5,6.9,84,0.00,-SN,,0.00,WeatherDisplay:10.37,2013-01-04 03:25:00,
2013-01-03 22:30:00,28.2,24.0,30.21,WSW,254,4.5,5.8,84,0.00,-SN,,0.00,WeatherDisplay:10.37,2013-01-04 03:30:00,
2013-01-03 22:35:00,28.2,24.3,30.21,West,265,2.4,4.0,85,0.00,-SN,,0.00,WeatherDisplay:10.37,2013-01-04 03:35:00,
2013-01-03 22:40:00,28.2,24.3,30.21,WSW,241,7.0,13.8,85,0.00,-SN,,0.00,WeatherDisplay:10.37,2013-01-04 03:40:00,
2013-01-03 22:45:00,28.2,24.3,30.21,West,260,3.6,8.0,85,0.00,-SN,,0.00,WeatherDisplay:10.37,2013-01-04 03:45:00,
2013-01-03 22:50:00,28.2,24.3,30.21,West,260,2.8,6.9,85,0.00,-SN,,0.00,WeatherDisplay:10.37,2013-01-04 03:50:00,
2013-01-03 22:55:00,28.2,24.3,30.21,WSW,257,5.2,10.4,85,0.00,-SN,,0.00,WeatherDisplay:10.37,2013-01-04 03:55:00,
2013-01-03 23:00:00,28.3,24.4,30.21,WSW,246,7.1,10.4,85,0.00,-SN,,0.00,WeatherDisplay:10.37,2013-01-04 04:00:00,
2013-01-03 23:05:00,28.2,24.3,30.21,WSW,245,4.2,8.0,85,0.00,-SN,,0.00,WeatherDisplay:10.37,2013-01-04 04:05:00,
2013-01-03 23:10:00,28.2,24.3,30.21,SW,227,4.6,7.0,85,0.00,-SN,,0.00,WeatherDisplay:10.37,2013-01-04 04:10:00,
2013-01-03 23:15:00,28.2,24.3,30.21,WSW,252,3.8,6.9,85,0.00,-SN,,0.00,WeatherDisplay:10.37,2013-01-04 04:15:00,
2013-01-03 23:20:00,28.1,24.5,30.21,West,261,3.5,4.6,86,0.00,-SN,,0.00,WeatherDisplay:10.37,2013-01-04 04:20:00,
2013-01-03 23:25:00,28.1,24.5,30.21,WSW,258,5.7,10.4,86,0.00,-SN,,0.00,WeatherDisplay:10.37,2013-01-04 04:25:00,
2013-01-03 23:30:00,28.2,24.6,30.21,WNW,285,7.2,12.7,86,0.00,-SN,,0.00,WeatherDisplay:10.37,2013-01-04 04:30:00,
2013-01-03 23:35:00,28.1,24.5,30.20,West,273,6.7,11.5,86,0.00,-SN,,0.00,WeatherDisplay:10.37,2013-01-04 04:35:00,
2013-01-03 23:40:00,28.1,24.5,30.20,WSW,251,6.2,11.5,86,0.00,-SN,,0.00,WeatherDisplay:10.37,2013-01-04 04:40:00,
2013-01-03 23:45:00,28.1,24.5,30.20,West,263,4.8,10.4,86,0.00,-SN,,0.00,WeatherDisplay:10.37,2013-01-04 04:45:00,
2013-01-03 23:50:00,28.2,24.6,30.20,SW,217,7.4,11.5,86,0.00,-SN,,0.00,WeatherDisplay:10.37,2013-01-04 04:50:00,
2013-01-03 23:55:00,28.1,24.5,30.20,West,273,5.6,8.0,86,0.00,-SN,,0.00,WeatherDisplay:10.37,2013-01-04 04:55:00,